Regional Weather Roundup
Issued by NWS Green Bay, WI

Home | Current Version | Previous Version | Graphics & Text | Print | Product List | Glossary Off
Versions: 1 2 3 4 5 6 7 8 9 10 11 12 13 14 15 16 17 18 19 20 21 22 23 24 25 26 27 28 29 30 31 32 33 34 35 36 37 38 39 40 41 42 43 44 45 46 47 48 49 50

000
ASUS43 KGRB 030811
RWRGRB

NORTH-CENTRAL AND NORTHEAST WISCONSIN REGIONAL WEATHER ROUNDUP
NATIONAL WEATHER SERVICE GREEN BAY WI
300 AM CDT TUE MAY 03 2016

WIZ005-009-010>012-018-019-030900-
NORTH CENTRAL WISCONSIN

CITY           SKY/WX    TMP DP  RH WIND       PRES   REMARKS
IRONWOOD         N/A     41  34  75 SW8       29.86F
MANITOWISH WTR FOG       32  32 100 CALM      29.90F VSB 3/4
ARBOR VITAE    CLEAR     37  33  87 CALM      29.91F
EAGLE RIVER    CLEAR     31  31  97 CALM      29.90F
LAND O LAKES   MOCLDY    31  31  99 CALM      29.91F
RHINELANDER    CLEAR     36  32  85 W5        29.92F
PHILLIPS       CLEAR     36  33  92 CALM      29.92F
ANTIGO         CLEAR     40  34  79 CALM      29.92F
TOMAHAWK       CLEAR     31  29  92 CALM      29.92F
MERRILL        CLEAR     33  33  97 CALM      29.94F
$$

WIZ013-073-030900-
NORTHEAST WISCONSIN

CITY           SKY/WX    TMP DP  RH WIND       PRES   REMARKS
IRON MOUNTAIN  CLEAR     35  29  78 CALM      29.87F
MARINETTE      CLEAR     46  36  66 SW8       29.90F
OCONTO         CLEAR     37  37 100 CALM      29.91F
$$

WIZ017-030-035>037-045-030900-
CENTRAL WISCONSIN

CITY           SKY/WX    TMP DP  RH WIND       PRES   REMARKS
MEDFORD        CLEAR     42  34  72 CALM      29.93F
WAUSAU         CLEAR     49  35  58 NW6       29.92F
MOSINEE        CLEAR     45  34  65 W6        29.94F
MARSHFIELD     CLEAR     46  34  62 W7        29.93F
WISC RAPIDS    CLEAR     39  33  79 CALM      29.96F
STEVENS POINT  CLEAR     35  32  89 CALM      29.95S
WAUPACA        CLEAR     43  34  71 CALM      29.94F
SHAWANO        CLEAR     46  37  69 CALM      29.93F
CLINTONVILLE   CLEAR     45  34  65 SW3       29.93F
WAUTOMA        CLEAR     37  34  89 CALM      29.96F
$$

WIZ038-039-048-051-030900-
FOX VALLEY

CITY           SKY/WX    TMP DP  RH WIND       PRES   REMARKS
NWS GREEN BAY  CLEAR     43  37  79 CALM      29.93F
APPLETON       CLEAR     43  32  65 SW6       29.93S
OSHKOSH        CLEAR     46  35  65 S9        29.94F
FOND DU LAC    CLEAR     46  35  65 SW9       29.95F
$$

WIZ022-050-052-030900-
EAST CENTRAL WISCONSIN

CITY           SKY/WX    TMP DP  RH WIND       PRES   REMARKS
EPHRAIM        FAIR      46  28  50 SW3       29.91F
STURGEON BAY   CLEAR     45  30  57 S7        29.94F
MANITOWOC      CLEAR     40  34  79 MISG      29.95F
SHEBOYGAN      CLEAR     41  33  73 SW5       29.96F
$$

LMZ563-521-522-541>543-030900-
LAKESHORE

STATION/POSITION TIME  TEMP    WIND        PRES    VSBY  WAVE
                       AIR SEA DIR/SP/G                  HT/PER
                 (UTC) (F)     (DEG/KT/KT) (MB)    (MI)  (FT/S)
SHEBOYGAN LKSHOR 0800   47     240/  8/  9 1015.0F
KEWAUNEE LKSHORE 0700   42      CALM  /  2 1013.5F
ALGOMA MARINA    0715             CALM       N/A
NORTHPORT PIER   0700   46     220/  2/  6 1013.2F
N MID LAKE BUOY  0750   41 38  180/  6/  6 1013.2F         0
CHAMBERS ISLAND  0700   47     170/  3/  6 1013.5F
MENOMINEE LKSHOR 0700   49     190/  6/  9 1012.3F
$$




USA.gov is the U.S. government's official web portal to all federal, state and local government web resources and services.